QPF
0.01 0.01 0.01 0.01 0.02 0.03 0.02 0.01 0.01 0.02 0.01 0.01 0.01 0.01 0.02 0.04 0.05 0.06 0.06 0.05 0.05 0.08 0.12 0.15 0.14 0.12 0.10 0.09 0.08 0.09 0.09 0.09 0.08 0.05 0.05 0.06 0.07 0.06 0.05 0.05 0.05 0.04 0.04 0.05 0.06 0.05 0.08 0.10 0.14
0.00 0.00 0.01 0.01 0.01 0.02 0.02 0.01 0.01 0.02 0.02 0.02 0.01 0.02 0.04 0.06 0.06 0.09 0.08 0.05 0.05 0.06 0.08 0.08 0.10 0.10 0.09 0.10 0.12 0.13 0.11 0.08 0.09 0.07 0.06 0.07 0.08 0.07 0.06 0.06 0.06 0.05 0.04 0.06 0.08 0.09 0.09 0.10 0.12
0.00 0.00 0.03 0.02 0.01 0.02 0.02 0.01 0.02 0.03 0.02 0.02 0.01 0.03 0.07 0.12 0.13 0.13 0.09 0.04 0.04 0.05 0.06 0.06 0.08 0.10 0.09 0.09 0.11 0.12 0.10 0.08 0.08 0.09 0.10 0.12 0.11 0.11 0.08 0.08 0.08 0.07 0.05 0.06 0.07 0.08 0.08 0.08 0.09
0.01 0.01 0.01 0.01 0.01 0.02 0.01 0.02 0.02 0.02 0.02 0.01 0.02 0.05 0.08 0.11 0.13 0.12 0.07 0.05 0.04 0.05 0.07 0.09 0.11 0.09 0.07 0.08 0.09 0.11 0.10 0.09 0.08 0.10 0.12 0.14 0.14 0.12 0.10 0.09 0.08 0.07 0.06 0.05 0.07 0.07 0.06 0.06 0.06
0.01 0.01 0.01 0.00 0.01 0.01 0.01 0.01 0.02 0.02 0.03 0.02 0.02 0.07 0.11 0.13 0.11 0.07 0.05 0.06 0.06 0.07 0.09 0.14 0.11 0.09 0.09 0.08 0.10 0.17 0.17 0.13 0.10 0.09 0.10 0.11 0.11 0.10 0.10 0.09 0.07 0.06 0.05 0.05 0.06 0.07 0.06 0.05 0.05
0.01 0.01 0.01 0.01 0.01 0.01 0.01 0.01 0.02 0.02 0.02 0.03 0.03 0.06 0.10 0.11 0.09 0.06 0.04 0.06 0.05 0.05 0.07 0.11 0.11 0.09 0.09 0.08 0.11 0.19 0.22 0.20 0.16 0.15 0.15 0.14 0.14 0.13 0.11 0.09 0.08 0.07 0.06 0.05 0.05 0.06 0.06 0.07 0.06
0.01 0.01 0.01 0.01 0.01 0.02 0.01 0.01 0.01 0.02 0.02 0.02 0.03 0.05 0.09 0.08 0.06 0.04 0.03 0.02 0.03 0.04 0.06 0.09 0.08 0.08 0.08 0.08 0.11 0.14 0.18 0.23 0.21 0.19 0.16 0.14 0.14 0.13 0.12 0.11 0.10 0.09 0.08 0.07 0.06 0.07 0.09 0.07 0.06
0.01 0.01 0.01 0.00 0.00 0.01 0.00 0.00 0.00 0.01 0.01 0.01 0.01 0.02 0.03 0.03 0.02 0.02 0.02 0.02 0.03 0.04 0.04 0.04 0.05 0.07 0.08 0.08 0.08 0.11 0.14 0.14 0.15 0.13 0.12 0.12 0.16 0.20 0.16 0.13 0.12 0.12 0.10 0.08 0.07 0.09 0.10 0.06 0.05
0.00 0.01 0.01 0.00 0.00 0.00 0.00 0.00 0.00 0.00 0.00 0.01 0.01 0.01 0.01 0.01 0.02 0.02 0.02 0.03 0.03 0.03 0.03 0.04 0.04 0.05 0.06 0.07 0.06 0.08 0.08 0.08 0.09 0.10 0.08 0.12 0.21 0.20 0.18 0.13 0.12 0.12 0.11 0.10 0.09 0.11 0.10 0.06 0.04
0.01 0.01 0.01 0.00 0.00 0.00 0.00 0.00 0.00 0.00 0.01 0.01 0.00 0.00 0.00 0.01 0.01 0.01 0.02 0.02 0.02 0.02 0.02 0.02 0.03 0.02 0.02 0.03 0.06 0.07 0.05 0.05 0.06 0.08 0.07 0.09 0.12 0.15 0.16 0.13 0.12 0.12 0.10 0.09 0.09 0.10 0.07 0.04 0.04
0.01 0.01 0.00 0.00 0.00 0.00 0.00 0.00 0.00 0.00 0.01 0.01 0.00 0.00 0.00 0.01 0.01 0.01 0.01 0.01 0.01 0.01 0.01 0.01 0.02 0.01 0.02 0.02 0.03 0.03 0.04 0.04 0.05 0.06 0.05 0.05 0.06 0.08 0.10 0.11 0.11 0.10 0.08 0.06 0.05 0.04 0.03 0.03 0.04
0.00 0.00 0.00 0.00 0.00 0.00 0.00 0.00 0.00 0.00 0.01 0.01 0.00 0.00 0.00 0.00 0.01 0.01 0.00 0.00 0.00 0.00 0.01 0.01 0.01 0.01 0.01 0.02 0.02 0.03 0.03 0.03 0.04 0.05 0.03 0.04 0.05 0.06 0.07 0.08 0.08 0.07 0.07 0.08 0.05 0.03 0.02 0.02 0.03
0.00 0.00 0.00 0.00 0.00 0.00 0.00 0.00 0.00 0.00 0.00 0.00 0.00 0.00 0.00 0.00 0.00 0.00 0.00 0.00 0.00 0.00 0.01 0.01 0.01 0.01 0.02 0.03 0.03 0.03 0.03 0.03 0.03 0.03 0.03 0.05 0.04 0.04 0.05 0.06 0.06 0.05 0.05 0.05 0.04 0.03 0.03 0.03 0.03
0.00 0.00 0.00 0.00 0.00 0.00 0.00 0.00 0.00 0.00 0.00 0.00 0.00 0.00 0.00 0.00 0.01 0.01 0.00 0.00 0.00 0.01 0.01 0.03 0.03 0.02 0.03 0.03 0.03 0.03 0.03 0.03 0.03 0.03 0.04 0.04 0.05 0.06 0.05 0.05 0.06 0.04 0.04 0.04 0.04 0.03 0.04 0.03 0.02
0.00 0.00 0.00 0.00 0.00 0.00 0.00 0.01 0.01 0.01 0.01 0.01 0.01 0.00 0.00 0.00 0.01 0.01 0.00 0.00 0.01 0.01 0.01 0.02 0.02 0.01 0.02 0.02 0.01 0.01 0.01 0.01 0.03 0.03 0.03 0.04 0.07 0.08 0.07 0.07 0.07 0.05 0.04 0.04 0.04 0.04 0.04 0.03 0.03
0.00 0.00 0.00 0.00 0.00 0.00 0.00 0.01 0.01 0.02 0.01 0.01 0.01 0.01 0.01 0.01 0.01 0.01 0.00 0.01 0.02 0.02 0.02 0.01 0.00 0.01 0.01 0.02 0.01 0.01 0.02 0.02 0.02 0.01 0.02 0.05 0.10 0.11 0.10 0.09 0.09 0.08 0.06 0.04 0.04 0.04 0.05 0.06 0.06
0.00 0.00 0.00 0.00 0.00 0.00 0.01 0.01 0.01 0.02 0.01 0.01 0.01 0.01 0.01 0.01 0.01 0.00 0.00 0.00 0.02 0.02 0.01 0.01 0.01 0.01 0.02 0.03 0.02 0.03 0.03 0.02 0.02 0.02 0.03 0.07 0.12 0.12 0.13 0.14 0.14 0.11 0.07 0.04 0.03 0.04 0.05 0.04 0.05
0.00 0.00 0.00 0.00 0.00 0.00 0.01 0.01 0.01 0.01 0.01 0.01 0.01 0.01 0.01 0.01 0.01 0.00 0.00 0.00 0.01 0.01 0.02 0.02 0.01 0.01 0.01 0.02 0.03 0.03 0.04 0.04 0.03 0.04 0.06 0.10 0.11 0.07 0.07 0.09 0.07 0.05 0.05 0.05 0.05 0.05 0.04 0.04 0.06
0.00 0.00 0.00 0.00 0.00 0.00 0.01 0.01 0.00 0.00 0.01 0.01 0.00 0.00 0.01 0.01 0.01 0.01 0.00 0.00 0.01 0.02 0.03 0.03 0.03 0.02 0.01 0.02 0.03 0.05 0.05 0.05 0.04 0.04 0.07 0.08 0.06 0.03 0.05 0.03 0.05 0.05 0.05 0.05 0.04 0.04 0.04 0.03 0.04
0.00 0.00 0.00 0.00 0.00 0.00 0.00 0.01 0.00 0.00 0.00 0.00 0.01 0.01 0.01 0.02 0.02 0.02 0.01 0.00 0.01 0.02 0.02 0.03 0.03 0.02 0.02 0.03 0.03 0.03 0.05 0.03 0.02 0.03 0.04 0.05 0.03 0.02 0.02 0.03 0.02 0.04 0.04 0.04 0.03 0.04 0.04 0.04 0.04
0.00 0.00 0.00 0.00 0.00 0.00 0.00 0.00 0.00 0.00 0.00 0.00 0.01 0.01 0.01 0.01 0.01 0.01 0.01 0.00 0.01 0.02 0.02 0.03 0.03 0.02 0.03 0.04 0.03 0.02 0.03 0.02 0.02 0.03 0.04 0.04 0.03 0.02 0.02 0.03 0.02 0.02 0.02 0.03 0.03 0.03 0.05 0.07 0.07
0.00 0.00 0.00 0.00 0.00 0.00 0.00 0.00 0.00 0.00 0.01 0.01 0.00 0.00 0.00 0.01 0.01 0.01 0.01 0.01 0.01 0.02 0.02 0.02 0.03 0.02 0.02 0.03 0.02 0.02 0.04 0.04 0.04 0.05 0.04 0.03 0.01 0.01 0.02 0.02 0.02 0.03 0.02 0.03 0.03 0.02 0.04 0.05 0.05
0.00 0.00 0.00 0.00 0.00 0.00 0.00 0.00 0.00 0.00 0.01 0.01 0.01 0.00 0.00 0.01 0.01 0.01 0.01 0.01 0.01 0.01 0.01 0.01 0.02 0.02 0.01 0.02 0.03 0.04 0.03 0.04 0.04 0.05 0.05 0.04 0.02 0.01 0.01 0.01 0.03 0.03 0.02 0.03 0.04 0.03 0.03 0.04 0.05
0.00 0.00 0.00 0.00 0.00 0.00 0.00 0.00 0.00 0.00 0.00 0.00 0.00 0.00 0.00 0.01 0.01 0.01 0.01 0.01 0.00 0.00 0.00 0.01 0.01 0.01 0.01 0.01 0.02 0.02 0.03 0.03 0.04 0.04 0.04 0.04 0.05 0.04 0.03 0.03 0.03 0.03 0.04 0.03 0.03 0.03 0.03 0.04 0.06
0.00 0.00 0.00 0.00 0.00 0.00 0.00 0.00 0.00 0.00 0.00 0.00 0.00 0.00 0.01 0.01 0.01 0.01 0.01 0.01 0.01 0.00 0.01 0.01 0.01 0.02 0.02 0.01 0.02 0.02 0.02 0.03 0.04 0.03 0.04 0.04 0.04 0.04 0.03 0.03 0.03 0.03 0.03 0.03 0.04 0.04 0.04 0.04 0.06
0.00 0.00 0.00 0.00 0.00 0.00 0.00 0.00 0.00 0.00 0.00 0.00 0.00 0.00 0.00 0.01 0.01 0.01 0.02 0.02 0.01 0.01 0.01 0.02 0.02 0.02 0.02 0.01 0.01 0.03 0.02 0.02 0.03 0.03 0.03 0.04 0.04 0.03 0.03 0.04 0.03 0.02 0.02 0.03 0.04 0.05 0.05 0.05 0.06
0.00 0.00 0.00 0.00 0.00 0.00 0.00 0.00 0.00 0.00 0.00 0.00 0.00 0.00 0.00 0.01 0.01 0.01 0.02 0.02 0.01 0.01 0.02 0.02 0.01 0.01 0.01 0.01 0.01 0.02 0.02 0.02 0.02 0.02 0.02 0.03 0.04 0.04 0.06 0.08 0.09 0.08 0.09 0.08 0.07 0.06 0.07 0.08 0.08
0.00 0.00 0.00 0.00 0.00 0.00 0.00 0.00 0.00 0.00 0.00 0.00 0.00 0.00 0.01 0.01 0.01 0.01 0.02 0.02 0.01 0.01 0.01 0.01 0.02 0.02 0.03 0.02 0.01 0.01 0.01 0.01 0.02 0.02 0.02 0.02 0.02 0.02 0.03 0.03 0.05 0.09 0.12 0.15 0.13 0.09 0.06 0.05 0.05
0.00 0.00 0.00 0.00 0.00 0.00 0.00 0.00 0.00 0.00 0.00 0.01 0.01 0.01 0.01 0.01 0.01 0.01 0.01 0.01 0.01 0.01 0.01 0.00 0.01 0.03 0.03 0.02 0.01 0.00 0.00 0.01 0.02 0.02 0.02 0.02 0.02 0.03 0.03 0.03 0.02 0.03 0.03 0.03 0.05 0.04 0.03 0.02 0.02
0.00 0.00 0.00 0.00 0.00 0.00 0.00 0.00 0.00 0.00 0.00 0.01 0.01 0.01 0.01 0.01 0.02 0.02 0.01 0.00 0.00 0.00 0.00 0.00 0.01 0.02 0.02 0.02 0.01 0.01 0.00 0.00 0.01 0.02 0.02 0.02 0.02 0.02 0.02 0.02 0.03 0.02 0.02 0.02 0.02 0.03 0.02 0.02 0.02
MSLP
1008.35 1008.68 1009.23 1009.92 1010.64 1011.30 1011.81 1012.13 1012.27 1012.29 1012.26 1012.25 1012.32 1012.46 1012.63 1012.76 1012.78 1012.63 1012.32 1011.87 1011.38 1010.94 1010.65 1010.58 1010.74 1011.09 1011.57 1012.07 1012.52 1012.87 1013.10 1013.25 1013.36 1013.48 1013.67 1013.92 1014.22 1014.52 1014.77 1014.95 1015.04 1015.06 1015.05 1015.04 1015.07 1015.15 1015.27 1015.40 1015.48
1008.32 1008.74 1009.36 1010.09 1010.82 1011.45 1011.90 1012.16 1012.22 1012.17 1012.08 1012.04 1012.09 1012.23 1012.44 1012.62 1012.73 1012.69 1012.49 1012.18 1011.81 1011.50 1011.31 1011.31 1011.51 1011.87 1012.31 1012.77 1013.15 1013.43 1013.59 1013.68 1013.73 1013.82 1013.96 1014.17 1014.43 1014.69 1014.90 1015.05 1015.11 1015.11 1015.08 1015.07 1015.10 1015.18 1015.29 1015.39 1015.43
1008.33 1008.84 1009.51 1010.25 1010.96 1011.55 1011.94 1012.14 1012.15 1012.05 1011.93 1011.87 1011.92 1012.07 1012.30 1012.53 1012.69 1012.73 1012.62 1012.41 1012.15 1011.93 1011.84 1011.90 1012.15 1012.52 1012.96 1013.38 1013.72 1013.94 1014.06 1014.10 1014.11 1014.15 1014.26 1014.42 1014.63 1014.84 1015.00 1015.10 1015.13 1015.11 1015.06 1015.04 1015.07 1015.14 1015.23 1015.30 1015.31
1008.39 1008.95 1009.64 1010.38 1011.05 1011.59 1011.93 1012.07 1012.05 1011.93 1011.81 1011.76 1011.83 1012.00 1012.25 1012.50 1012.69 1012.77 1012.71 1012.57 1012.38 1012.24 1012.22 1012.34 1012.63 1013.02 1013.46 1013.86 1014.18 1014.38 1014.47 1014.49 1014.47 1014.49 1014.55 1014.68 1014.83 1014.99 1015.10 1015.15 1015.14 1015.08 1015.02 1014.98 1014.99 1015.04 1015.11 1015.15 1015.11
1008.48 1009.07 1009.76 1010.46 1011.08 1011.56 1011.86 1011.97 1011.94 1011.83 1011.74 1011.73 1011.82 1012.03 1012.29 1012.55 1012.75 1012.83 1012.79 1012.67 1012.53 1012.44 1012.47 1012.63 1012.95 1013.36 1013.80 1014.21 1014.52 1014.71 1014.80 1014.81 1014.79 1014.79 1014.83 1014.92 1015.03 1015.14 1015.20 1015.19 1015.13 1015.04 1014.95 1014.88 1014.87 1014.89 1014.92 1014.92 1014.83
1008.60 1009.18 1009.84 1010.48 1011.05 1011.47 1011.73 1011.83 1011.81 1011.75 1011.71 1011.75 1011.89 1012.12 1012.40 1012.66 1012.84 1012.91 1012.87 1012.76 1012.63 1012.57 1012.62 1012.81 1013.14 1013.56 1014.00 1014.41 1014.72 1014.91 1015.00 1015.02 1015.02 1015.02 1015.06 1015.12 1015.20 1015.25 1015.26 1015.21 1015.10 1014.96 1014.83 1014.73 1014.68 1014.67 1014.66 1014.61 1014.49
1008.71 1009.27 1009.87 1010.45 1010.95 1011.32 1011.55 1011.66 1011.67 1011.67 1011.70 1011.80 1012.00 1012.27 1012.55 1012.80 1012.96 1013.01 1012.95 1012.83 1012.71 1012.65 1012.71 1012.91 1013.24 1013.65 1014.08 1014.46 1014.77 1014.96 1015.06 1015.10 1015.11 1015.13 1015.17 1015.22 1015.28 1015.30 1015.26 1015.16 1015.01 1014.83 1014.66 1014.52 1014.43 1014.37 1014.32 1014.23 1014.07
1008.83 1009.34 1009.87 1010.38 1010.81 1011.14 1011.36 1011.48 1011.54 1011.60 1011.70 1011.88 1012.13 1012.42 1012.71 1012.95 1013.09 1013.11 1013.04 1012.91 1012.79 1012.73 1012.79 1012.98 1013.29 1013.66 1014.06 1014.41 1014.68 1014.87 1014.97 1015.01 1015.04 1015.08 1015.13 1015.19 1015.23 1015.23 1015.16 1015.02 1014.83 1014.62 1014.41 1014.23 1014.10 1014.01 1013.92 1013.80 1013.61
1008.94 1009.39 1009.85 1010.29 1010.67 1010.96 1011.17 1011.31 1011.43 1011.55 1011.72 1011.95 1012.24 1012.55 1012.84 1013.07 1013.19 1013.19 1013.11 1012.98 1012.86 1012.81 1012.86 1013.03 1013.30 1013.64 1013.97 1014.27 1014.50 1014.65 1014.73 1014.78 1014.82 1014.87 1014.94 1015.00 1015.04 1015.03 1014.94 1014.78 1014.56 1014.32 1014.09 1013.89 1013.73 1013.61 1013.49 1013.34 1013.14
1009.05 1009.44 1009.84 1010.22 1010.55 1010.82 1011.03 1011.20 1011.36 1011.53 1011.75 1012.02 1012.33 1012.64 1012.92 1013.12 1013.22 1013.22 1013.13 1013.01 1012.91 1012.87 1012.92 1013.07 1013.30 1013.58 1013.85 1014.07 1014.24 1014.34 1014.39 1014.43 1014.47 1014.53 1014.61 1014.68 1014.72 1014.70 1014.61 1014.43 1014.20 1013.95 1013.71 1013.50 1013.34 1013.20 1013.07 1012.90 1012.68
1009.16 1009.50 1009.85 1010.18 1010.48 1010.74 1010.96 1011.15 1011.34 1011.55 1011.80 1012.08 1012.38 1012.67 1012.91 1013.09 1013.17 1013.16 1013.08 1012.98 1012.90 1012.88 1012.94 1013.08 1013.28 1013.50 1013.70 1013.85 1013.95 1013.99 1014.00 1014.01 1014.05 1014.11 1014.19 1014.27 1014.31 1014.29 1014.19 1014.02 1013.79 1013.54 1013.31 1013.11 1012.95 1012.82 1012.68 1012.51 1012.28
1009.27 1009.59 1009.90 1010.20 1010.47 1010.72 1010.95 1011.17 1011.38 1011.60 1011.84 1012.11 1012.37 1012.62 1012.82 1012.95 1013.00 1012.99 1012.92 1012.85 1012.81 1012.82 1012.90 1013.04 1013.22 1013.40 1013.54 1013.63 1013.66 1013.65 1013.62 1013.60 1013.62 1013.67 1013.75 1013.83 1013.87 1013.85 1013.75 1013.58 1013.36 1013.13 1012.91 1012.73 1012.59 1012.48 1012.35 1012.18 1011.95
1009.41 1009.70 1009.98 1010.26 1010.52 1010.77 1011.01 1011.23 1011.44 1011.66 1011.88 1012.10 1012.32 1012.50 1012.64 1012.72 1012.74 1012.71 1012.66 1012.61 1012.61 1012.66 1012.77 1012.93 1013.11 1013.26 1013.38 1013.43 1013.42 1013.36 1013.30 1013.26 1013.25 1013.29 1013.36 1013.42 1013.45 1013.42 1013.32 1013.15 1012.94 1012.73 1012.53 1012.38 1012.26 1012.17 1012.06 1011.90 1011.67
1009.57 1009.84 1010.10 1010.36 1010.61 1010.86 1011.09 1011.31 1011.52 1011.71 1011.89 1012.06 1012.20 1012.31 1012.38 1012.40 1012.38 1012.34 1012.29 1012.27 1012.30 1012.40 1012.55 1012.73 1012.93 1013.09 1013.20 1013.24 1013.22 1013.15 1013.08 1013.02 1012.99 1013.01 1013.06 1013.10 1013.11 1013.07 1012.95 1012.78 1012.58 1012.37 1012.19 1012.06 1011.97 1011.90 1011.81 1011.66 1011.44
1009.76 1010.00 1010.24 1010.48 1010.72 1010.96 1011.18 1011.38 1011.56 1011.71 1011.84 1011.95 1012.02 1012.06 1012.06 1012.03 1011.97 1011.91 1011.86 1011.86 1011.92 1012.04 1012.23 1012.45 1012.68 1012.87 1013.01 1013.07 1013.07 1013.02 1012.95 1012.89 1012.86 1012.86 1012.88 1012.89 1012.88 1012.81 1012.67 1012.49 1012.28 1012.07 1011.90 1011.78 1011.70 1011.64 1011.57 1011.44 1011.23
1009.95 1010.17 1010.38 1010.60 1010.83 1011.04 1011.24 1011.41 1011.55 1011.66 1011.73 1011.77 1011.78 1011.75 1011.70 1011.63 1011.54 1011.45 1011.40 1011.41 1011.48 1011.63 1011.84 1012.10 1012.37 1012.61 1012.79 1012.91 1012.95 1012.94 1012.90 1012.86 1012.83 1012.82 1012.82 1012.80 1012.76 1012.66 1012.50 1012.29 1012.07 1011.85 1011.67 1011.55 1011.47 1011.41 1011.35 1011.24 1011.05
1010.14 1010.33 1010.53 1010.73 1010.93 1011.11 1011.28 1011.40 1011.48 1011.53 1011.53 1011.51 1011.46 1011.39 1011.30 1011.20 1011.09 1011.00 1010.94 1010.95 1011.03 1011.19 1011.42 1011.70 1012.01 1012.30 1012.55 1012.73 1012.84 1012.89 1012.90 1012.90 1012.88 1012.88 1012.86 1012.83 1012.76 1012.63 1012.45 1012.23 1011.98 1011.75 1011.55 1011.41 1011.32 1011.25 1011.19 1011.09 1010.93
1010.30 1010.48 1010.66 1010.85 1011.02 1011.17 1011.28 1011.35 1011.36 1011.32 1011.25 1011.17 1011.07 1010.96 1010.85 1010.74 1010.63 1010.54 1010.49 1010.50 1010.57 1010.73 1010.97 1011.27 1011.61 1011.95 1012.26 1012.52 1012.71 1012.84 1012.93 1012.97 1012.99 1013.00 1012.99 1012.95 1012.87 1012.73 1012.54 1012.31 1012.05 1011.80 1011.59 1011.42 1011.30 1011.22 1011.16 1011.07 1010.94
1010.41 1010.59 1010.78 1010.96 1011.12 1011.24 1011.29 1011.27 1011.19 1011.05 1010.89 1010.73 1010.57 1010.43 1010.32 1010.21 1010.13 1010.06 1010.03 1010.04 1010.12 1010.27 1010.51 1010.81 1011.18 1011.56 1011.94 1012.28 1012.56 1012.78 1012.94 1013.06 1013.13 1013.18 1013.19 1013.17 1013.09 1012.97 1012.79 1012.56 1012.31 1012.06 1011.83 1011.64 1011.49 1011.39 1011.31 1011.23 1011.13
1010.43 1010.65 1010.87 1011.08 1011.24 1011.32 1011.31 1011.19 1010.99 1010.73 1010.45 1010.19 1009.96 1009.79 1009.67 1009.59 1009.54 1009.51 1009.52 1009.55 1009.64 1009.80 1010.03 1010.35 1010.73 1011.15 1011.59 1012.01 1012.38 1012.70 1012.95 1013.15 1013.29 1013.39 1013.45 1013.46 1013.43 1013.34 1013.20 1013.00 1012.77 1012.53 1012.30 1012.10 1011.94 1011.81 1011.72 1011.64 1011.55
1010.35 1010.63 1010.93 1011.19 1011.37 1011.43 1011.35 1011.13 1010.78 1010.36 1009.93 1009.54 1009.22 1009.00 1008.87 1008.81 1008.82 1008.85 1008.91 1009.00 1009.12 1009.30 1009.55 1009.88 1010.28 1010.74 1011.24 1011.73 1012.20 1012.61 1012.96 1013.25 1013.47 1013.64 1013.76 1013.83 1013.86 1013.83 1013.75 1013.61 1013.43 1013.22 1013.01 1012.81 1012.64 1012.50 1012.39 1012.31 1012.24
1010.15 1010.54 1010.94 1011.29 1011.52 1011.57 1011.42 1011.08 1010.57 1009.97 1009.35 1008.80 1008.36 1008.06 1007.91 1007.88 1007.94 1008.05 1008.20 1008.36 1008.54 1008.76 1009.05 1009.41 1009.85 1010.36 1010.91 1011.48 1012.03 1012.54 1012.98 1013.36 1013.67 1013.91 1014.11 1014.25 1014.35 1014.40 1014.40 1014.34 1014.23 1014.07 1013.90 1013.72 1013.55 1013.41 1013.30 1013.21 1013.14
1009.85 1010.37 1010.90 1011.36 1011.66 1011.72 1011.51 1011.03 1010.35 1009.54 1008.72 1007.98 1007.40 1007.01 1006.82 1006.81 1006.93 1007.14 1007.38 1007.64 1007.91 1008.21 1008.55 1008.96 1009.45 1010.01 1010.62 1011.26 1011.90 1012.49 1013.03 1013.49 1013.88 1014.20 1014.47 1014.69 1014.87 1015.00 1015.08 1015.11 1015.08 1014.99 1014.87 1014.73 1014.58 1014.45 1014.33 1014.24 1014.17
1009.48 1010.13 1010.81 1011.39 1011.76 1011.83 1011.57 1010.97 1010.12 1009.11 1008.07 1007.14 1006.40 1005.91 1005.67 1005.68 1005.86 1006.16 1006.52 1006.90 1007.28 1007.67 1008.09 1008.56 1009.11 1009.72 1010.40 1011.11 1011.82 1012.49 1013.10 1013.64 1014.10 1014.49 1014.82 1015.11 1015.36 1015.57 1015.73 1015.84 1015.89 1015.88 1015.82 1015.72 1015.61 1015.49 1015.39 1015.30 1015.23
1009.10 1009.87 1010.66 1011.35 1011.79 1011.87 1011.56 1010.86 1009.85 1008.66 1007.43 1006.32 1005.43 1004.84 1004.57 1004.58 1004.83 1005.22 1005.70 1006.20 1006.70 1007.19 1007.70 1008.25 1008.86 1009.53 1010.26 1011.02 1011.78 1012.52 1013.19 1013.79 1014.31 1014.75 1015.14 1015.48 1015.78 1016.05 1016.28 1016.46 1016.58 1016.64 1016.65 1016.60 1016.53 1016.44 1016.35 1016.28 1016.21
1008.76 1009.60 1010.48 1011.24 1011.72 1011.81 1011.46 1010.67 1009.54 1008.21 1006.83 1005.57 1004.57 1003.91 1003.61 1003.64 1003.94 1004.43 1005.01 1005.63 1006.24 1006.84 1007.44 1008.05 1008.71 1009.43 1010.20 1011.00 1011.80 1012.58 1013.30 1013.93 1014.49 1014.97 1015.39 1015.76 1016.10 1016.42 1016.70 1016.93 1017.12 1017.24 1017.30 1017.31 1017.27 1017.21 1017.15 1017.09 1017.04
1008.54 1009.38 1010.28 1011.04 1011.53 1011.60 1011.21 1010.37 1009.17 1007.74 1006.28 1004.95 1003.89 1003.19 1002.88 1002.94 1003.30 1003.87 1004.55 1005.27 1005.98 1006.66 1007.32 1007.99 1008.68 1009.43 1010.22 1011.04 1011.86 1012.66 1013.40 1014.06 1014.64 1015.14 1015.58 1015.98 1016.34 1016.68 1017.00 1017.27 1017.50 1017.67 1017.78 1017.83 1017.83 1017.81 1017.77 1017.73 1017.69
1008.48 1009.24 1010.06 1010.77 1011.20 1011.24 1010.81 1009.94 1008.71 1007.27 1005.79 1004.45 1003.39 1002.71 1002.43 1002.54 1002.96 1003.60 1004.36 1005.15 1005.93 1006.66 1007.37 1008.06 1008.77 1009.52 1010.31 1011.12 1011.94 1012.74 1013.49 1014.16 1014.76 1015.27 1015.73 1016.14 1016.52 1016.89 1017.22 1017.53 1017.79 1018.00 1018.14 1018.22 1018.26 1018.26 1018.24 1018.22 1018.20
1008.60 1009.20 1009.86 1010.43 1010.76 1010.71 1010.25 1009.37 1008.16 1006.76 1005.34 1004.07 1003.08 1002.46 1002.25 1002.42 1002.90 1003.60 1004.41 1005.25 1006.07 1006.83 1007.56 1008.25 1008.96 1009.69 1010.46 1011.25 1012.06 1012.85 1013.59 1014.26 1014.87 1015.40 1015.87 1016.30 1016.70 1017.08 1017.44 1017.77 1018.06 1018.29 1018.46 1018.57 1018.63 1018.64 1018.64 1018.63 1018.61
1008.88 1009.25 1009.68 1010.05 1010.21 1010.05 1009.53 1008.66 1007.51 1006.20 1004.90 1003.75 1002.89 1002.38 1002.26 1002.50 1003.04 1003.78 1004.63 1005.49 1006.33 1007.10 1007.83 1008.52 1009.20 1009.91 1010.65 1011.42 1012.20 1012.97 1013.71 1014.38 1015.00 1015.54 1016.04 1016.49 1016.91 1017.32 1017.70 1018.06 1018.37 1018.62 1018.81 1018.94 1019.01 1019.03 1019.03 1019.01 1019.00
Thickness
5815 5818 5818 5812 5805 5798 5788 5793 5800 5798 5797 5802 5803 5799 5792 5786 5779 5769 5787 5795 5793 5791 5786 5781 5779 5779 5778 5777 5776 5776 5775 5775 5774 5773 5772 5771 5770 5769 5768 5767 5766 5766 5765 5764 5763 5763 5762 5761 5760
5823 5821 5815 5812 5804 5787 5783 5794 5796 5797 5801 5805 5804 5800 5794 5788 5790 5788 5790 5792 5793 5791 5787 5783 5779 5778 5777 5776 5776 5775 5775 5774 5773 5772 5771 5770 5769 5768 5767 5767 5766 5765 5764 5764 5763 5762 5761 5760 5759
5826 5823 5816 5814 5802 5790 5785 5797 5798 5802 5807 5805 5800 5799 5793 5786 5789 5790 5793 5793 5793 5790 5787 5782 5778 5777 5777 5776 5775 5775 5774 5774 5773 5772 5771 5770 5768 5767 5767 5766 5765 5765 5764 5763 5763 5762 5761 5760 5759
5826 5822 5821 5811 5795 5800 5802 5804 5805 5803 5805 5806 5801 5792 5791 5792 5794 5795 5795 5795 5792 5790 5787 5782 5778 5777 5776 5776 5776 5775 5774 5773 5772 5771 5770 5769 5767 5766 5766 5766 5765 5764 5763 5763 5762 5761 5760 5759 5758
5828 5823 5814 5804 5800 5806 5812 5813 5810 5803 5801 5802 5801 5789 5783 5792 5798 5797 5796 5795 5793 5791 5788 5783 5778 5777 5776 5776 5775 5774 5773 5772 5771 5770 5769 5768 5767 5766 5766 5765 5765 5764 5763 5762 5761 5760 5759 5758 5757
5826 5825 5810 5798 5800 5809 5815 5817 5814 5805 5802 5803 5800 5790 5783 5793 5794 5795 5796 5796 5795 5793 5790 5784 5779 5777 5776 5775 5774 5773 5772 5771 5771 5770 5769 5768 5767 5766 5765 5765 5764 5764 5762 5762 5761 5760 5759 5758 5757
5823 5821 5809 5808 5805 5807 5813 5821 5814 5807 5803 5804 5806 5792 5787 5791 5795 5797 5797 5795 5795 5794 5792 5788 5784 5779 5776 5775 5773 5773 5772 5771 5770 5769 5768 5767 5766 5766 5765 5765 5764 5763 5762 5761 5761 5760 5759 5758 5758
5835 5828 5818 5815 5809 5807 5819 5821 5819 5814 5807 5814 5813 5796 5787 5792 5797 5797 5796 5794 5793 5793 5791 5788 5786 5783 5782 5778 5774 5772 5770 5770 5769 5768 5768 5767 5766 5766 5765 5765 5764 5763 5762 5761 5761 5760 5759 5758 5758
5839 5826 5814 5816 5813 5813 5822 5819 5820 5824 5816 5814 5814 5810 5805 5801 5799 5795 5792 5790 5789 5789 5790 5790 5788 5785 5783 5781 5776 5773 5771 5770 5769 5769 5767 5767 5769 5769 5767 5766 5764 5763 5762 5762 5761 5760 5760 5759 5758
5836 5822 5820 5829 5830 5825 5824 5822 5821 5818 5810 5807 5806 5807 5806 5801 5797 5794 5791 5788 5788 5787 5789 5789 5788 5786 5784 5781 5778 5776 5776 5773 5771 5770 5770 5770 5769 5768 5768 5765 5764 5763 5762 5762 5761 5761 5760 5761 5763
5837 5827 5832 5836 5838 5835 5828 5825 5828 5819 5808 5810 5806 5802 5802 5800 5798 5796 5794 5793 5791 5791 5789 5789 5788 5785 5784 5781 5780 5778 5777 5774 5773 5771 5770 5770 5769 5769 5768 5767 5766 5765 5765 5765 5764 5764 5765 5765 5764
5836 5836 5838 5839 5841 5836 5831 5829 5825 5822 5819 5823 5819 5812 5806 5801 5800 5798 5796 5795 5794 5792 5790 5790 5788 5785 5782 5782 5780 5778 5778 5776 5775 5772 5771 5771 5770 5770 5769 5768 5768 5768 5767 5766 5767 5766 5765 5764 5764
5835 5836 5841 5844 5842 5839 5835 5828 5825 5821 5826 5826 5820 5813 5808 5805 5804 5803 5802 5799 5796 5793 5792 5791 5787 5783 5781 5779 5779 5780 5778 5778 5776 5772 5772 5771 5772 5771 5770 5769 5768 5769 5768 5768 5767 5767 5765 5765 5764
5840 5840 5840 5843 5841 5839 5830 5828 5825 5821 5826 5821 5816 5811 5810 5808 5807 5804 5801 5798 5796 5794 5793 5792 5788 5785 5782 5780 5780 5779 5779 5776 5777 5775 5773 5772 5772 5771 5771 5770 5769 5770 5770 5769 5768 5768 5766 5767 5766
5845 5836 5836 5839 5839 5838 5833 5818 5821 5826 5825 5817 5814 5813 5811 5810 5809 5806 5804 5802 5800 5797 5795 5793 5790 5788 5784 5783 5782 5781 5781 5780 5778 5776 5773 5772 5772 5771 5771 5771 5771 5771 5771 5769 5768 5768 5768 5768 5767
5841 5833 5824 5833 5838 5837 5828 5809 5823 5829 5824 5817 5815 5814 5812 5811 5812 5811 5810 5806 5804 5800 5797 5794 5794 5790 5786 5784 5782 5783 5782 5780 5778 5777 5775 5773 5771 5771 5771 5772 5772 5771 5771 5770 5769 5769 5768 5768 5767
5831 5822 5821 5827 5838 5836 5828 5817 5825 5831 5825 5819 5817 5815 5813 5812 5813 5813 5813 5810 5807 5803 5798 5795 5794 5790 5788 5785 5783 5783 5781 5780 5779 5777 5776 5774 5772 5771 5772 5772 5771 5771 5771 5771 5771 5770 5768 5766 5765
5817 5822 5822 5823 5834 5832 5825 5824 5827 5830 5827 5823 5821 5819 5816 5815 5815 5817 5816 5814 5810 5805 5801 5797 5794 5791 5788 5786 5784 5782 5781 5780 5779 5778 5776 5773 5773 5772 5772 5772 5771 5771 5771 5769 5768 5766 5766 5766 5765
5828 5823 5820 5826 5837 5830 5824 5824 5828 5831 5827 5824 5823 5821 5819 5819 5823 5821 5818 5815 5811 5807 5802 5798 5795 5792 5789 5787 5784 5781 5779 5780 5779 5778 5775 5773 5772 5771 5771 5772 5770 5770 5769 5767 5767 5766 5764 5764 5765
5824 5820 5821 5828 5834 5828 5825 5824 5833 5834 5831 5830 5828 5825 5824 5823 5822 5820 5818 5816 5812 5807 5803 5800 5796 5793 5791 5789 5786 5783 5782 5781 5780 5778 5774 5772 5771 5770 5771 5769 5770 5769 5767 5766 5765 5763 5764 5764 5763
5820 5820 5820 5820 5826 5828 5821 5818 5826 5834 5836 5835 5834 5833 5831 5827 5824 5820 5818 5817 5814 5809 5806 5803 5799 5795 5792 5790 5788 5785 5781 5779 5778 5775 5773 5771 5770 5769 5768 5768 5768 5767 5768 5766 5763 5762 5760 5759 5760
5814 5829 5825 5821 5816 5816 5818 5805 5823 5832 5829 5831 5833 5834 5833 5833 5829 5825 5821 5819 5817 5814 5811 5806 5801 5797 5793 5790 5788 5784 5779 5776 5775 5774 5773 5771 5769 5768 5767 5766 5765 5765 5766 5763 5763 5763 5761 5758 5757
5821 5830 5825 5821 5816 5813 5817 5808 5822 5831 5824 5829 5834 5836 5837 5836 5833 5829 5826 5823 5821 5818 5813 5808 5802 5797 5794 5791 5788 5783 5781 5779 5778 5774 5771 5769 5769 5767 5766 5765 5764 5763 5764 5762 5760 5759 5758 5758 5756
5827 5821 5819 5819 5816 5797 5811 5806 5811 5829 5830 5833 5836 5836 5837 5836 5835 5831 5829 5825 5821 5819 5814 5809 5801 5796 5793 5790 5787 5783 5780 5777 5775 5772 5770 5769 5769 5767 5765 5764 5762 5761 5761 5759 5757 5756 5755 5754 5752
5819 5807 5794 5789 5792 5796 5815 5806 5815 5834 5838 5836 5834 5835 5837 5836 5834 5831 5827 5823 5819 5817 5813 5809 5802 5796 5793 5790 5786 5783 5780 5777 5774 5772 5770 5769 5768 5766 5762 5762 5759 5759 5757 5756 5754 5753 5752 5751 5748
5814 5811 5789 5777 5784 5800 5807 5803 5823 5836 5838 5838 5838 5837 5835 5835 5835 5832 5829 5824 5820 5816 5812 5808 5802 5796 5793 5789 5786 5783 5780 5778 5776 5773 5771 5769 5767 5765 5762 5759 5757 5755 5754 5753 5751 5751 5749 5748 5746
5807 5809 5819 5804 5798 5792 5803 5813 5824 5832 5829 5831 5832 5832 5831 5831 5831 5830 5829 5825 5821 5817 5813 5809 5802 5797 5793 5790 5785 5782 5779 5777 5775 5772 5770 5769 5765 5763 5759 5756 5754 5752 5751 5749 5747 5747 5745 5744 5744
5817 5815 5806 5796 5775 5774 5791 5801 5810 5816 5819 5824 5825 5826 5826 5827 5826 5826 5826 5824 5821 5818 5813 5808 5803 5797 5793 5790 5785 5782 5778 5775 5772 5770 5767 5765 5762 5760 5756 5754 5751 5749 5747 5746 5744 5743 5741 5740 5739
5800 5800 5800 5799 5796 5778 5776 5798 5825 5821 5822 5821 5823 5824 5823 5823 5823 5823 5822 5821 5819 5816 5812 5806 5801 5796 5791 5788 5784 5781 5777 5774 5771 5768 5765 5762 5759 5756 5753 5750 5747 5745 5743 5742 5740 5739 5737 5736 5735
5806 5803 5800 5784 5781 5786 5784 5798 5829 5826 5826 5824 5822 5820 5821 5820 5820 5819 5817 5815 5814 5811 5808 5803 5799 5794 5790 5786 5782 5778 5775 5772 5769 5765 5763 5759 5756 5754 5750 5747 5744 5741 5740 5738 5735 5734 5733 5731 5730